Flag for Germany Weather past 2 weeks in Braunschweig, Lower Saxony, Germany

Now
66 °F

Passing clouds.


Feels Like: 66 °F
Forecast: 56 / 72 °F
Wind: 8 mph from East

Location: Braunschweig

Current Time: Sep 16, 2014 at 12:08:19 PM

Latest Report: Sep 16, 2014 at 11:20 AM


Visibility: N/A

Pressure: 30.07 "Hg

Humidity: 88%

Dew point: 63 °F

Location of BraunschweigLocation

Historic Weather in Braunschweig — Graph

°F

Braunschweig temperature yesterday

Maximum temperature yesterday: 68 °F (at 5:20 PM)
Minimum temperature yesterday: 61 °F (at 6:50 AM)
Average temperature yesterday: 64 °F

Past Weeks' High & Low Weather Summary

 TemperatureHumidityPressure
High79 °F (Sep 6, 2:50 PM)100% (Sep 1, 10:20 AM)30.30 "Hg (Sep 1, 10:20 AM)
Low50 °F (Sep 9, 6:50 AM)53% (Sep 8, 5:20 PM)29.86 "Hg (Sep 6, 7:20 PM)
Average63 °F84%30.09 "Hg
* Reported Sep 1 10:20 AM — Sep 16 10:50 AM, Braunschweig, Weather by CustomWeather, © 2014

Note: Actual official high and low records may vary slightly from our data, if they occured in-between our weather recording intervals... More about our weather records

Advertising

Braunschweig weather history for previous 24 hours

 ConditionsComfort  
Time TempWeatherWind HumidityBarometerVisibility
10:50 AM
Sep 16
64 °FSunny.8 mph88%30.07 "Hg10 mi
10:20 AM63 °FSunny.10 mph88%30.07 "Hg10 mi
9:50 AM61 °FSunny.9 mph100%30.07 "Hg10 mi
9:20 AM59 °FClear.7 mph100%30.07 "Hg6 mi
8:50 AM57 °FClear.8 mph100%30.07 "Hg5 mi
8:20 AM57 °FClear.6 mph100%30.07 "Hg5 mi
7:50 AM57 °FClear.5 mph100%30.07 "Hg5 mi
7:20 AM57 °FClear.6 mph100%30.07 "Hg4 mi
6:50 AM57 °FClear.2 mph100%30.04 "Hg4 mi
9:20 PM
Sep 15
61 °FFog.5 mph100%30.07 "Hg3 mi
8:50 PM63 °FFog.6 mph100%30.07 "Hg3 mi
8:20 PM63 °FClear.7 mph100%30.07 "Hg4 mi
7:50 PM64 °FPassing clouds.6 mph94%30.07 "Hg4 mi
7:20 PM66 °FScattered clouds.6 mph88%30.07 "Hg5 mi
6:50 PM68 °FScattered clouds.7 mph88%30.07 "Hg6 mi
6:20 PM68 °FPassing clouds.9 mph83%30.07 "Hg6 mi
5:50 PM68 °FScattered clouds.10 mph88%30.07 "Hg5 mi
5:20 PM68 °FScattered clouds.12 mph88%30.07 "Hg4 mi
4:20 PM66 °FPartly sunny.10 mph100%30.07 "Hg4 mi
3:50 PM64 °FFog.9 mph100%30.07 "Hg2 mi
3:20 PM64 °FDrizzle. Fog.6 mph100%30.09 "Hg2 mi
2:50 PM64 °FFog.7 mph100%30.09 "Hg3 mi
2:20 PM64 °FFog.6 mph100%30.09 "Hg3 mi
1:50 PM64 °FLow clouds.6 mph100%30.09 "Hg4 mi
1:20 PM64 °FLow clouds.6 mph100%30.09 "Hg5 mi
12:50 PM64 °FMostly cloudy.6 mph100%30.09 "Hg4 mi
12:20 PM64 °FMostly cloudy.6 mph100%30.09 "Hg4 mi
Weather by CustomWeather, © 2014

See weather overviewHow to use our weather pages